Weather History for KSHL - April, 2013

Change the Weather History Date:

Thursday, April 4, 2013

  Actual Average Record
Temperature  
Mean Temperature 42 °F -  
Max Temperature 53 °F 50 °F 80 °F (2005)
Min Temperature 32 °F 27 °F 16 °F (1982)
Degree Days  
Heating Degree Days 22    
Moisture  
Dew Point 29 °F    
Average Humidity 62    
Maximum Humidity 87    
Minimum Humidity 35    
Precipitation  
Precipitation 0.00 in - - ()
Sea Level Pressure  
Sea Level Pressure 30.11 in    
Wind  
Wind Speed 13 mph (North)    
Max Wind Speed 18 mph    
Max Gust Speed 23 mph    
Visibility 10 miles    
Events      
Averages and records for this station are not official NWS values.
T = Trace of Precipitation, MM = Missing Value Source: NWS Daily Summary

Daily Weather History Graph

Daily Weather History Graph

Search for Another Location

Airport or City:

Trip Planner

Search our weather history database for the weather conditions in past years. The results will help you decide how hot, cold, wet, or windy it might be!

Date:

Astronomy

Apr. 04, 2013 Rise Set
Actual Time 6:59 AM CDT 7:53 PM CDT
Civil Twilight 6:30 AM CDT 8:22 PM CDT
Nautical Twilight 5:56 AM CDT 8:57 PM CDT
Astronomical Twilight 5:20 AM CDT 9:33 PM CDT
Moon 3:36 AM CDT (4/4) 2:04 PM CDT (4/4)
Length of Visible Light 13h 52m
Length of Day
12h 54m
Waning Crescent, 33% of the Moon is Illuminated
Apr 4
Waning Crescent
Apr 10
New
Apr 18
First Quarter
Apr 25
Full
May 2
Last Quarter

Hourly Weather History & Observations

Time (CDT) Temp. Windchill Dew Point Humidity Pressure Visibility Wind Dir Wind Speed Gust Speed Precip Events Conditions
12:15 AM 41.0 °F 32.5 °F 28.4 °F 61% 30.10 in 10.0 mi SSW 17.3 mph - N/A   Clear
12:35 AM 41.0 °F 32.2 °F 28.4 °F 61% 30.10 in 10.0 mi SSW 18.4 mph - N/A   Clear
12:55 AM 39.2 °F 30.5 °F 28.4 °F 65% 30.10 in 10.0 mi SSW 16.1 mph 21.9 mph N/A   Clear
1:15 AM 39.2 °F 30.8 °F 28.4 °F 65% 30.10 in 10.0 mi SSW 15.0 mph - N/A   Clear
1:35 AM 39.2 °F 30.5 °F 28.4 °F 65% 30.10 in 10.0 mi SSW 16.1 mph - N/A   Partly Cloudy
1:55 AM 37.4 °F 28.2 °F 28.4 °F 70% 30.10 in 10.0 mi SSW 16.1 mph - N/A   Mostly Cloudy
2:15 AM 37.4 °F 29.8 °F 28.4 °F 70% 30.10 in 10.0 mi SSW 11.5 mph - N/A   Scattered Clouds
2:35 AM 37.4 °F 29.3 °F 28.4 °F 70% 30.10 in 10.0 mi SSW 12.7 mph - N/A   Clear
2:55 AM 35.6 °F 27.5 °F 28.4 °F 75% 30.09 in 10.0 mi SSW 11.5 mph - N/A   Scattered Clouds
3:15 AM 37.4 °F 30.3 °F 28.4 °F 70% 30.09 in 10.0 mi SSW 10.4 mph - N/A   Overcast
3:35 AM 35.6 °F 27.1 °F 28.4 °F 75% 30.08 in 10.0 mi South 12.7 mph - N/A   Mostly Cloudy
3:55 AM 35.6 °F 27.5 °F 26.6 °F 70% 30.08 in 10.0 mi SSW 11.5 mph - N/A   Overcast
4:15 AM 35.6 °F 27.1 °F 26.6 °F 70% 30.08 in 10.0 mi SSW 12.7 mph - N/A   Mostly Cloudy
4:35 AM 35.6 °F 27.5 °F 26.6 °F 70% 30.07 in 10.0 mi SSW 11.5 mph 18.4 mph N/A   Scattered Clouds
4:55 AM 35.6 °F 27.5 °F 26.6 °F 70% 30.07 in 10.0 mi SSW 11.5 mph - N/A   Partly Cloudy
5:15 AM 35.6 °F 27.1 °F 28.4 °F 75% 30.06 in 10.0 mi SSW 12.7 mph - N/A   Partly Cloudy
5:35 AM 35.6 °F 27.5 °F 28.4 °F 75% 30.06 in 10.0 mi SSW 11.5 mph - N/A   Partly Cloudy
5:55 AM 33.8 °F 24.8 °F 28.4 °F 81% 30.06 in 10.0 mi South 12.7 mph - N/A   Scattered Clouds
6:15 AM 33.8 °F 25.8 °F 28.4 °F 81% 30.06 in 10.0 mi SSW 10.4 mph - N/A   Partly Cloudy
6:35 AM 35.6 °F 28.0 °F 28.4 °F 75% 30.06 in 10.0 mi SSW 10.4 mph - N/A   Clear
6:55 AM 35.6 °F 27.1 °F 30.2 °F 81% 30.07 in 10.0 mi SW 12.7 mph - N/A   Partly Cloudy
7:15 AM 35.6 °F 27.5 °F 30.2 °F 81% 30.07 in 9.0 mi SSW 11.5 mph - N/A   Mostly Cloudy
7:35 AM 35.6 °F 27.5 °F 30.2 °F 81% 30.07 in - SW 11.5 mph - N/A   Mostly Cloudy
7:55 AM 35.6 °F 28.6 °F 30.2 °F 81% 30.08 in 10.0 mi SW 9.2 mph - N/A   Mostly Cloudy
8:15 AM 37.4 °F 30.3 °F 32.0 °F 81% 30.08 in 9.0 mi SSW 10.4 mph - N/A   Overcast
8:35 AM 37.4 °F 32.8 °F 32.0 °F 81% 30.09 in 10.0 mi WSW 5.8 mph - N/A   Overcast
8:55 AM 37.4 °F 32.8 °F 32.0 °F 81% 30.10 in 9.0 mi West 5.8 mph - N/A   Mostly Cloudy
9:15 AM 37.4 °F 30.3 °F 32.0 °F 81% 30.09 in 10.0 mi North 10.4 mph - N/A   Mostly Cloudy
9:35 AM 37.4 °F 30.3 °F 33.8 °F 87% 30.09 in 9.0 mi NNE 10.4 mph - N/A   Mostly Cloudy
9:55 AM 41.0 °F 34.7 °F 32.0 °F 70% 30.09 in 9.0 mi NNE 10.4 mph - N/A   Partly Cloudy
10:15 AM 42.8 °F 36.6 °F 30.2 °F 61% 30.10 in 10.0 mi NE 11.5 mph - N/A   Clear
10:35 AM 42.8 °F 37.0 °F 30.2 °F 61% 30.11 in 10.0 mi NE 10.4 mph - N/A   Clear
10:55 AM 44.6 °F 38.8 °F 28.4 °F 53% 30.11 in 10.0 mi NNE 11.5 mph - N/A   Clear
11:35 AM 46.4 °F 40.1 °F 30.2 °F 53% 30.12 in 10.0 mi North 15.0 mph - N/A   Clear
11:55 AM 48.2 °F - 28.4 °F 46% 30.12 in 10.0 mi NNE 11.5 mph 19.6 mph N/A   Clear
12:15 PM 50.0 °F - 30.2 °F 47% 30.12 in 10.0 mi North 17.3 mph - N/A   Clear
12:35 PM 51.8 °F - 28.4 °F 41% 30.13 in 10.0 mi North 12.7 mph 19.6 mph N/A   Clear
12:55 PM 51.8 °F - 24.8 °F 35% 30.12 in 10.0 mi North 11.5 mph 20.7 mph N/A   Clear
1:15 PM 51.8 °F - 26.6 °F 38% 30.12 in 10.0 mi NNE 15.0 mph 23.0 mph N/A   Clear
1:35 PM 51.8 °F - 26.6 °F 38% 30.12 in 10.0 mi North 17.3 mph - N/A   Clear
1:55 PM 53.6 °F - 26.6 °F 35% 30.12 in 10.0 mi NNE 13.8 mph 19.6 mph N/A   Clear
2:15 PM 53.6 °F - 26.6 °F 35% 30.11 in 10.0 mi NNE 13.8 mph 23.0 mph N/A   Clear
2:35 PM 53.6 °F - 26.6 °F 35% 30.11 in 10.0 mi North 16.1 mph 23.0 mph N/A   Clear
2:55 PM 51.8 °F - 26.6 °F 38% 30.10 in 10.0 mi NNE 16.1 mph - N/A   Clear
3:15 PM 51.8 °F - 28.4 °F 41% 30.10 in 10.0 mi North 13.8 mph 21.9 mph N/A   Clear
3:35 PM 51.8 °F - 28.4 °F 41% 30.10 in 10.0 mi NNE 16.1 mph - N/A   Clear
3:55 PM 51.8 °F - 28.4 °F 41% 30.10 in 10.0 mi North 17.3 mph 23.0 mph N/A   Clear
4:15 PM 53.6 °F - 28.4 °F 38% 30.10 in 10.0 mi North 12.7 mph 20.7 mph N/A   Clear
4:35 PM 53.6 °F - 28.4 °F 38% 30.09 in 10.0 mi North 13.8 mph - N/A   Clear
4:55 PM 53.6 °F - 26.6 °F 35% 30.10 in 10.0 mi North 16.1 mph - N/A   Clear
5:15 PM 51.8 °F - 26.6 °F 38% 30.10 in 10.0 mi North 9.2 mph 19.6 mph N/A   Clear
5:35 PM 51.8 °F - 28.4 °F 41% 30.10 in 10.0 mi North 11.5 mph 18.4 mph N/A   Clear
5:55 PM 51.8 °F - 28.4 °F 41% 30.10 in 10.0 mi NNE 13.8 mph - N/A   Scattered Clouds
6:15 PM 50.0 °F - 28.4 °F 43% 30.11 in 10.0 mi North 12.7 mph - N/A   Mostly Cloudy
6:35 PM 50.0 °F - 28.4 °F 43% 30.11 in 10.0 mi NNE 15.0 mph - N/A   Overcast
6:55 PM 48.2 °F - 30.2 °F 50% 30.12 in 10.0 mi NNE 16.1 mph - N/A   Mostly Cloudy
7:15 PM 46.4 °F 40.4 °F 30.2 °F 53% 30.12 in 10.0 mi NNE 13.8 mph - N/A   Partly Cloudy
7:35 PM 44.6 °F 38.4 °F 30.2 °F 57% 30.12 in 10.0 mi NNE 12.7 mph - N/A   Clear
7:55 PM 42.8 °F 36.2 °F 30.2 °F 61% 30.12 in 10.0 mi NNE 12.7 mph - N/A   Clear
8:15 PM 41.0 °F 34.7 °F 30.2 °F 65% 30.13 in 10.0 mi NNE 10.4 mph - N/A   Clear
8:35 PM 39.2 °F 32.0 °F 30.2 °F 70% 30.14 in 10.0 mi North 11.5 mph - N/A   Clear
8:55 PM 37.4 °F 28.9 °F 30.2 °F 75% 30.14 in 10.0 mi NNE 13.8 mph - N/A   Clear
9:15 PM 37.4 °F 30.3 °F 28.4 °F 70% 30.15 in 10.0 mi NNE 10.4 mph - N/A   Clear
9:35 PM 35.6 °F 28.0 °F 28.4 °F 75% 30.16 in 10.0 mi North 10.4 mph - N/A   Clear
9:55 PM 33.8 °F 26.4 °F 28.4 °F 81% 30.17 in 10.0 mi NNE 9.2 mph - N/A   Mostly Cloudy
10:15 PM 33.8 °F 24.8 °F 28.4 °F 81% 30.16 in 10.0 mi NNE 12.7 mph - N/A   Mostly Cloudy
10:35 PM 33.8 °F 25.3 °F 26.6 °F 75% 30.17 in 10.0 mi North 11.5 mph - N/A   Partly Cloudy
10:55 PM 32.0 °F 23.0 °F 26.6 °F 80% 30.17 in 10.0 mi North 11.5 mph - N/A   Scattered Clouds
11:15 PM 32.0 °F 21.6 °F 26.6 °F 80% 30.16 in 10.0 mi NNE 15.0 mph - N/A   Overcast
11:35 PM 32.0 °F 24.2 °F 26.6 °F 80% 30.16 in 10.0 mi NNE 9.2 mph 15.0 mph N/A   Overcast
11:55 PM 32.0 °F 23.6 °F 26.6 °F 80% 30.17 in 10.0 mi NNE 10.4 mph - N/A   Overcast